Regional Weather Roundup
Issued by NWS Pendleton, OR

Home | Current Version | Previous Version | Text Only | Print | Product List | Glossary On
Versions: 1 2 3 4 5 6 7 8 9 10 11 12 13 14 15 16 17 18 19 20 21 22 23 24 25 26 27 28 29 30 31 32 33 34 35 36 37 38 39 40 41 42 43 44 45 46 47 48 49 50
000
ASUS46 KPDT 251725
RWRPDT
PENDLETON REGIONAL WEATHER ROUNDUP
NATIONAL WEATHER SERVICE PENDLETON OREGON
1000 AM PDT WED MAY 25 2016

NOTE: FAIR INDICATES FEW OR NO CLOUDS BELOW 12,000 FEET WITH NO
SIGNIFICANT WEATHER AND/OR OBSTRUCTIONS TO VISIBILITY.

# INDICATES UNOFFICIAL STATION AND DATA

WAZ520-251810-
EAST SLOPES OF WASHINGTON CASCADES

CITY            SKY/WX      TMP DP  RH  WIND    PRES   REMARKS
#CLE ELUM HS    N/A         58  45  62  W10     29.99S
#CLE ELUM 2NW   N/A         56  44  64  SW8     N/A
#GLENWOOD       N/A         61  48  62  CALM    30.03S
#MANASTASH CYN  N/A         57  42  57  W2      29.99R
#NELSON 3SW     N/A         57  45  64  CALM    30.19R
#NILE           N/A         60  45  58  W6      29.30R
#TEANAWAY 4NE   N/A         61  50  67  SW6     N/A
#TROUT LAKE 1NE N/A         58  46  64  W13     30.04R
#TROUT LAKE 1E  N/A         60  47  62  CALM    30.03R
$$

WAZ521-251810-
SIMCOE HIGHLANDS

CITY            SKY/WX      TMP DP  RH  WIND    PRES   REMARKS
#CENTERVILLE 1SWN/A         59  46  62  W13     29.99
#GOLDENDALE 1NE N/A         60  35  39  SW6     N/A
#GOLDENDALE 4W  N/A         62  52  70  W10     30.08R
#GOODNOE HILLS  N/A         65  49  56  SW18    29.95R
#LYLE 6NE       N/A         56  49  77  SW10    30.02R
$$

WAZ026-251810-
KITTITAS VALLEY

CITY            SKY/WX      TMP DP  RH  WIND    PRES   REMARKS
ELLENSBURG AP   SUNNY       65  44  46  NW25G32 30.00S
#ELLENSBURG CWU N/A         64  44  48  NW15    29.91S
#ELLENSBURG 3NE N/A         61  47  60  W13     30.01R
#ELLENSBURG     N/A         66  46  48  NW9     N/A
#ELLENSBURG 1E  N/A         62  N/A N/A NW3     N/A
#ELLENSBURG 13S N/A         68  45  44  W5      N/A
#KITTITAS 4N    N/A         62  46  56  W10     30.05R
#KITTITAS 3S    N/A         64  49  58  NW7     29.95S
#THORP 6N       N/A         57  47  69  W16G29  29.99S
$$

WAZ027-251810-
YAKIMA VALLEY

CITY            SKY/WX      TMP DP  RH  WIND    PRES   REMARKS
SUNNYSIDE AP    SUNNY       66  44  45  CALM    30.02S
YAKIMA AIRPORT  SUNNY       70  43  38  W9      30.01S
YAKIMA-VAGABOND MOSUNNY     65  44  46  NE6     29.99S
#DONALD 2NE     N/A         74  15  10  SW1     28.85S
#GRANDVIEW      N/A         67  44  43  CALM    30.01S
#MABTON         N/A         65  46  50  W3      30.01S
#NACHES 2SW     N/A         64  47  54  W10     30.02R
#TERRACE HTS    N/A         68  46  45  CALM    29.94F
#TOPPENISH      N/A         66  47  50  CALM    29.91S
#WEST VALLEY    N/A         66  43  43  SW5     29.96S
#W YAKIMA       N/A         66  46  48  W5      29.98S
#WHITE SWAN 5E  N/A         68  50  53  CALM    30.00S
#WILEY CITY 3W  N/A         67  42  40  CALM    29.98S
$$

WAZ028-251810-
LOWER COLUMBIA BASIN...WASHINGTON

CITY            SKY/WX      TMP DP  RH  WIND    PRES   REMARKS
HANFORD         MOSUNNY     69  40  35  SW5     30.00S
PASCO           SUNNY       67  46  47  SE6     30.02S
PROSSER AWOS    N/A         66  48  52  S5      30.05R
RICHLAND AWOS   SUNNY       71  47  42  S7      30.02S
#BASIN CITY 5SW N/A         67  48  50  S3      29.97S
#BENTON CITY    N/A         68  49  51  W2      29.91S
#CONNELL 5N     N/A         66  48  52  W8      29.98S
#CONNELL 5NW    N/A         65  52  63  SW5     29.95S
#ELTOPIA 6NW    N/A         64  51  63  CALM    28.99R
#KAHLOTUS       N/A         64  47  54  SW6     29.98S
#KENNEWICK 3S   N/A         67  49  52  CALM    30.01R
#PATERSON       N/A         65  49  56  W9      30.00S
#SAGEMOOR 2W    N/A         65  50  58  S3      29.85S
#TOUCHET 2S     N/A         67  53  61  S6      29.99R
#WEST PASCO     N/A         71  52  51  CALM    30.07S
$$

WAZ029-251810-
FOOTHILLS OF THE BLUES...WASHINGTON

CITY            SKY/WX      TMP DP  RH  WIND    PRES   REMARKS
WALLA WALLA AP  SUNNY       63  45  52  SW13    30.04R
#CLYDE 6NW      N/A         63  48  58  SW10    30.00S
#DAYTON SCHOOL  N/A         62  43  50  E7      30.05R
#LOWDEN 2SE     N/A         68  50  53  W7      29.99S
#PLEASANT VIEW 1N/A         64  48  56  SW8     30.03R
#PRESCOTT       N/A         65  50  58  S2      30.01R
#SUDBURY        N/A         62  N/A N/A CALM    N/A
#WHITMAN COLLEGEN/A         64  48  56  SE12    30.06R
#WAITSBURG 8N   N/A         64  25  23  S8      29.88S
#WALLA WALLA 5E N/A         66  53  63  SW12    N/A
#WALLA WALLA U  N/A         66  49  54  CALM    30.01R
#WHITMAN MISSIONN/A         66  49  54  NW3     30.02S
$$

WAZ030-251810-
BLUE MOUNTAINS...WASHINGTON

CITY            SKY/WX      TMP DP  RH  WIND    PRES   REMARKS
#DIXIE 5SE      N/A         56  47  72  W10     29.99R
$$

ORZ009-041-WAZ024-251810-
COLUMBIA RIVER GORGE

CITY            SKY/WX      TMP DP  RH  WIND    PRES   REMARKS
HOOD RIVER AP   PTCLDY      63  48  58  SW6     30.10R
THE DALLES AP   SUNNY       67  47  49  NW16    30.06R
#ARLINGTON AIRPON/A         65  48  54  W14     30.02S
#CELILO DOT     N/A         67  46  47  W12     N/A
#LYLE           N/A         61  50  67  W15G30  30.08S
#MARYHILL 2W    N/A         61  48  62  SW9     N/A
#MOSIER 1S      N/A         61  37  41  NW6     30.06S
#MURDOCK        N/A         63  49  60  NW16G25 30.02R
#RUFUS DOT      N/A         66  48  52  W16     N/A
#SMITHIVILLE    N/A         64  49  58  W17G25  30.06R

$$

ORZ510-251810-
NORTH CENTRAL OREGON

CITY            SKY/WX      TMP DP  RH  WIND    PRES   REMARKS
#ANTELOPE       N/A         57  44  62  SW7     29.92S
#CHENOWITH 1W   N/A         56  47  72  NW31    N/A
#COW CYN RST AREN/A         56  51  83  SW9     N/A
#DUFUR 9E       N/A         56  46  69  NW12    30.09R
#GRASS VALLEY   N/A         59  45  60  W2      N/A
#GRASS VALLEY 1SN/A         59  47  64  NW5     30.01S
#KENT DOT       N/A         58  35  42  N8      N/A
#MAUPIN SCHOOL  N/A         65  47  52  CALM    30.09S
#MORO SCHOOL    N/A         59  51  75  NW9     30.07R
#SHANIKO 5WSW   N/A         55  34  45  SW10    N/A
#SHANIKO 4NW    N/A         53  -53  1  W10     30.08R
#TYGH VALLEY 2NEN/A         64  46  52  E1      30.04S
#WAPANITIA AIRPON/A         61  45  56  NW7     30.06R
#WASCO DOT      N/A         63  45  52  W16     N/A
#WASCO AIRPORT  N/A         62  44  52  W23     N/A
#WASCO 5NE      N/A         62  48  60  W8      30.02R
$$

ORZ511-251810-
CENTRAL OREGON

CITY            SKY/WX      TMP DP  RH  WIND    PRES   REMARKS
BEND AIRPORT    CLOUDY      54  41  61  N5      30.10R
MADRAS AIRPORT  SUNNY       64  45  50  W5      30.12R
PRINEVILLE AP   CLOUDY      55  43  64  CALM    30.10R
REDMOND AIRPORT MOCLDY      57  38  49  CALM    30.09S
#ASHWOOD SCHOOL N/A         58  43  57  NW3     30.05R
#BEND 1SW       N/A         54  41  61  NE2     N/A
#BEND-AWBREY    N/A         53  43  69  CALM    30.06R
#BEND-KIM LN    N/A         55  44  66  CALM    30.09R
#CULVER         N/A         58  43  57  CALM    30.01S
#CULVER 8W      N/A         60  40  47  CALM    30.08S
#LAKE BILLY CHINN/A         59  N/A N/A CALM    30.15F
#MADRAS 4S      N/A         59  14  17  CALM    30.16R
#POWELL BUTTE 3EN/A         54  43  66  W6      N/A
#POWELL BUTTE   N/A         62  46  56  N2      29.97R
#PRINEVILLE 3N  N/A         56  46  69  SW1     30.04R
#WARM SPRINGS   N/A         66  47  50  CALM    30.05S

$$


ORZ509-251810-
EAST SLOPES OF OREGON CASCADES

CITY            SKY/WX      TMP DP  RH  WIND    PRES   REMARKS
SISTERS AWOS    N/A         55  41  59  W12     30.07R
#BLUE BOX PASS  N/A         43  N/A N/A SW1     N/A
#CAMP SHERMAN   N/A         57  41  55  N1      30.14R
#LA PINE DOT    N/A         55  36  49  W8      N/A
#LA PINE 4NW    N/A         53  41  64  N1      30.09R
#LAVA BUTTE DOT N/A         52  34  50  E1      N/A
#SISTERS AIRPOR N/A         55  47  74  N6      30.17S
#SISTERS ODOT   N/A         55  N/A N/A SE5     N/A
#SISTERS 1NW    N/A         55  39  55  N7      N/A
#SISTERS 3N     N/A         58  41  53  W6      30.08R
#SUNRIVER       N/A         54  42  64  SW2     30.07R
#SUTTLE LK DOT  N/A         47  41  79  W3      N/A
#TUMALO 3W      N/A         53  42  66  SW1     29.93R
#WANOGA BUTTE D N/A         44  36  73  CALM    N/A

$$

ORZ044-251810-
LOWER COLUMBIA BASIN...OREGON

CITY            SKY/WX      TMP DP  RH  WIND    PRES   REMARKS
HERMISTON       SUNNY       68  46  45  W14     30.03
#BOARDMAN SCHOOLN/A         67  49  52  SW7     30.02S
#ECHO 8SW       N/A         67  47  49  W12     30.04R
#I-84 EX 198 DOTN/A         65  45  48  E16     N/A
#UMATILLA SCHOOLN/A         68  55  63  W5      30.03S
#UMATILLA       N/A         66  48  52  CALM    29.95S
$$

ORZ507-251810-
NORTHERN FOOTHILLS OF THE BLUES

CITY            SKY/WX      TMP DP  RH  WIND    PRES   REMARKS
PENDLETON AIRPT SUNNY       65  42  43  W13     30.04S
#ADAMS 3WNW     N/A         63  46  54  W13     30.02S
#ATHENA         N/A         60  46  60  S8      30.04S
#CAYUSE         N/A         62  46  56  W3      30.02R
#HELIX SCHOOL   N/A         61  46  58  W7      30.02R
#HELIX 3N       N/A         61  48  62  SW15    30.02R
#HELIX 6SW      N/A         61  47  60  CALM    30.04R
#HOLDMAN 5SE    N/A         63  49  60  W7      30.03S
#HOLDMAN 6E     N/A         62  48  60  N6      29.83R
#M-F GROVE ELEM N/A         65  44  46  S7      30.02S
#M-FREEWATER 5SEN/A         63  48  58  SW7     30.04R
#PENDLETON DNTN N/A         68  45  44  NW2     30.07S
#PDT AQUATIC CTRN/A         64  47  54  W6      30.05S
#PDT SUNRIDGE   N/A         65  45  48  SW6     30.05S
#PENDLETON 7NW  N/A         68  50  53  SW8     32.27S
#PILOT ROCK 1S  N/A         66  45  47  S1      30.05R
#PILOT ROCK     N/A         65  45  48  N1      30.06S
#TUTUILLA       N/A         66  49  54  CALM    30.04S
#UMAPINE 2E     N/A         68  50  53  SW7     30.00S
#WESTON SCHOOL  N/A         59  43  55  N8      29.96R

$$

ORZ508-251810-
SOUTHERN FOOTHILLS OF THE BLUES

CITY            SKY/WX      TMP DP  RH  WIND    PRES   REMARKS
LEXINGTON       SUNNY       66  43  43  W12     30.09R
#AJAX           N/A         61  39  44  SE7     27.81S
#CONDON SCHOOL  N/A         56  43  62  SW7     30.03S
#CONDON 5W      N/A         55  41  59  SW7     30.05R
#FOSSIL SCHOOL  N/A         57  43  59  W1      30.02S
#HEPPNER EOC    N/A         62  45  54  W6      29.96S
#HEPPNER 4NE    N/A         58  44  60  NW7     30.02S
#LEXINGTON 2SE  N/A         66  43  43  W7      30.01S
#RUGGS 5NE      N/A         59  40  49  W10     30.23R
#RUGGS 2SW      N/A         59  43  55  NW8     30.05R

$$

ORZ502-503-251810-
BLUE MOUNTAINS

CITY            SKY/WX      TMP DP  RH  WIND    PRES   REMARKS
MEACHAM         PTCLDY      55  40  57  VRB5    30.08R
#BATTLE MTN DOT N/A         52  44  74  CALM    N/A
#CUTSFORTH PARK N/A         53  43  69  CALM    29.85S
#GREENHORN 9SW  N/A         58  45  62  W3      26.26S
#HARDMAN 10S    N/A         61  34  36  N5      30.22R
#HEPPNER 15SE   N/A         53  44  71  NW2     25.60R
#LADD CYN SMT   N/A         57  37  47  NW7     N/A
#LADD CREEK ODOTN/A         59  42  53  NE9     N/A
#LONG CREEK HS  N/A         53  46  77  CALM    N/A
#N POWDER DOT   N/A         60  44  55  NE12    N/A
#PIKES PEAK     N/A         51  43  74  SW16G24 27.99S
#TOLLGATE       N/A         48  42  80  W2      29.94R
#TROY SCHOOL    N/A         60  50  69  CALM    29.86F
#UKIAH          N/A         58  46  64  CALM    29.97S
#WESTON 4E      N/A         55  45  69  S7      29.99S
$$

ORZ505-251810-
JOHN DAY BASIN

CITY            SKY/WX      TMP DP  RH  WIND    PRES   REMARKS
JOHN DAY        N/A         N/A N/A N/A MISG    N/A
#DAYVILLE SCHOOLN/A         59  41  51  N3      30.04S
#MITCHELL       N/A         59  48  67  N2      30.23S
#MITCHELL 8NW   N/A         53  41  64  CALM    30.24S
#MONUMENT HS    N/A         62  41  46  NW6     30.01S
#MT. VERNON 5SE N/A         53  43  69  W1      30.04R
#SPRAY SCHOOL   N/A         64  N/A N/A NW1     N/A
#WINLOCK        N/A         59  43  55  E5      30.04R
$$

ORZ506-251810-
OCHOCO AND JOHN DAY HIGHLANDS

CITY            SKY/WX      TMP DP  RH  WIND    PRES   REMARKS
#BUCK CREEK DOT N/A         52  44  74  NW8     N/A
#HORSE RIDGE DO N/A         52  38  59  NW8     N/A
#KEYES SMT DOT  N/A         51  41  68  W5      N/A
#PAULINA SCHOOL N/A         56  39  53  SW5     N/A
#PINE MTN OBS   N/A         41  37  86  NW5     N/A
#PRAIRIE CITY   N/A         58  47  67  NW2     30.22R
#SENECA         N/A         54  N/A N/A W5      N/A
#SENECA 9NW     N/A         49  42  77  CALM    30.01S
$$

ORZ049-251810-
GRANDE RONDE VALLEY

CITY            SKY/WX      TMP DP  RH  WIND    PRES   REMARKS
LA GRANDE       SUNNY       63  41  44  NW10    30.04F
#COVE           N/A         58  49  72  N2      30.08S
#COVE SCHOOL    N/A         58  45  62  CALM    30.07S
#COVE 6NW       N/A         59  46  62  CALM    29.93F
#ELGIN 3N       N/A         61  47  60  S2      30.02F
#ELGIN 1E       N/A         59  49  69  CALM    N/A
#ISLAND CITY 4N N/A         58  52  80  CALM    30.17R
#LADD CYN DOT   N/A         61  45  56  N3      N/A
#UNION 1S       N/A         61  48  62  CALM    29.92F
$$

ORZ050-251810-
WALLOWA COUNTY

CITY            SKY/WX      TMP DP  RH  WIND    PRES   REMARKS
JOSEPH AIRPORT  CLOUDY      52  41  66  CALM    30.08R
#ENTERPRISE AP  N/A         49  29  46  CALM    29.99S
#ENTERPRISE HS  N/A         54  47  77  CALM    30.07R
#IMNAHA SCHOOL  N/A         60  47  62  SW2     30.02F
#IMNAHA 10S     N/A         55  46  72  CALM    30.03S
#JOSEPH 3N      N/A         52  42  69  CALM    30.08R
#JOSEPH 3W      N/A         54  48  80  E1      29.90R
#LOSTINE        N/A         54  46  74  N1      29.85S
#LOSTINE 3SE    N/A         53  46  77  E1      30.06R
#MT HOWARD 8000 N/A         36  33  89  N2      30.11R
#PROMISE 1S     N/A         56  45  66  NW1     30.11S
#WALLOWA SCHOOL N/A         55  46  72  CALM    30.02F



$$



USA.gov is the U.S. government's official web portal to all federal, state and local government web resources and services.